Regional Weather Roundup
Issued by NWS

Home | Current Version | Previous Version | Graphics & Text | Print | Product List | Glossary On
Versions: 1 2 3 4 5 6 7 8 9 10 11 12 13 14 15 16 17 18 19 20 21 22 23 24 25 26 27 28 29 30 31 32 33 34 35 36 37 38 39 40 41 42 43 44 45 46 47 48 49 50
092
ASUS43 KLSX 060610
RWRMO

WEATHER SUMMARY FOR MISSOURI
NATIONAL WEATHER SERVICE SPRINGFIELD MO
100 AM CDT FRI MAY 06 2016

NOTE: "FAIR" INDICATES FEW OR NO CLOUDS BELOW 12,000 FEET WITH NO
       SIGNIFICANT WEATHER AND/OR OBSTRUCTIONS TO VISIBILITY.
       CURRENT SKY AND/OR WEATHER CONDITIONS ARE NOT AVAILABLE FOR
       CHILLICOTHE AND FARMINGTON.

MOZ001>031-035>038-043-044-053-054-060700-
...NORTHERN AND WESTERN MISSOURI...

CITY           SKY/WX    TMP DP  RH WIND       PRES   REMARKS
KANSAS CTY INT CLEAR     54  39  57 S6        30.05S
6HR MIN TEMP:  54; 6HR MAX TEMP:  71;

KANSAS C DTWN  CLEAR     56  46  69 CALM      30.05S
6HR MIN TEMP:  56; 6HR MAX TEMP:  72;

LEE`S SUMMIT   CLEAR     57  40  52 CALM      30.06S
6HR MIN TEMP:  54; 6HR MAX TEMP:  69;

ST JOSEPH      CLEAR     54  49  83 CALM      30.05R
6HR MIN TEMP:  52; 6HR MAX TEMP:  73;

CHILLICOTHE      N/A     48  45  89 CALM      30.06R
6HR MIN TEMP:  48; 6HR MAX TEMP:  71;

KIRKSVILLE     CLEAR     44  41  89 SW3       30.04S
6HR MIN TEMP:  44; 6HR MAX TEMP:  66;


$$
MOZ066>068-077>081-088>096-101>105-060700-
...SOUTHWEST MISSOURI...

CITY           SKY/WX    TMP DP  RH WIND       PRES   REMARKS
SPRINGFIELD    CLEAR     49  37  63 SE5       30.06S
6HR MIN TEMP:  45; 6HR MAX TEMP:  68;

JOPLIN         CLEAR     50  44  80 S3        30.08R
6HR MIN TEMP:  49; 6HR MAX TEMP:  69;


$$
MOZ032>034-039>042-045>050-055>058-069>072-060700-
...CENTRAL MISSOURI...

CITY           SKY/WX    TMP DP  RH WIND       PRES   REMARKS
COLUMBIA       CLEAR     48  42  80 E3        30.05S
6HR MIN TEMP:  48; 6HR MAX TEMP:  67;

JEFFERSON CITY CLEAR     46  41  82 CALM      30.06R
6HR MIN TEMP:  46; 6HR MAX TEMP:  68;

ROLLA          CLEAR     48  38  68 CALM      30.05R
6HR MIN TEMP:  45; 6HR MAX TEMP:  64;

SEDALIA        CLEAR     56  35  45 S5        30.07R
6HR MIN TEMP:  55; 6HR MAX TEMP:  69;

WHITEMAN AFB   CLEAR     49  44  83 S2        30.05R
WARRENSBURG    CLEAR     48  43  81 CALM      30.06R
OSAGE BEACH    CLEAR     45  34  65 CALM      30.07R

$$
MOZ051-052-059>065-060700-
...EAST CENTRAL MISSOURI...

CITY           SKY/WX    TMP DP  RH WIND       PRES   REMARKS
ST LOUIS INTL  CLEAR     53  44  71 CALM      30.04R
6HR MIN TEMP:  53; 6HR MAX TEMP:  65;

SPIRIT OF STL  CLEAR     47  44  90 CALM      30.04R
6HR MIN TEMP:  47; 6HR MAX TEMP:  66;

ST CHARLES     CLEAR     50  47  89 CALM      30.03R
6HR MIN TEMP:  50; 6HR MAX TEMP:  65;


$$
MOZ072>076-082>087-097>100-106>115-060700-
...SOUTH CENTRAL AND SOUTHEAST MISSOURI...

CITY           SKY/WX    TMP DP  RH WIND       PRES   REMARKS
CAPE GIRARDEAU CLEAR     45  43  93 W6        30.03S
6HR MIN TEMP:  45; 6HR MAX TEMP:  62;

FARMINGTON     CLEAR     43  42  97 W3        30.06R
6HR MIN TEMP:  43; 6HR MAX TEMP:  62;

POPLAR BLUFF   PTCLDY    49  45  86 CALM      30.05R
6HR MIN TEMP:  49; 6HR MAX TEMP:  64;

WEST PLAINS    PTCLDY    45  38  76 CALM      30.08R
6HR MIN TEMP:  45; 6HR MAX TEMP:  66;


$$




USA.gov is the U.S. government's official web portal to all federal, state and local government web resources and services.